www.pogodaiklimat.ru

Погода и климат >> Архив погоды >> Таиланд >> Суфанбури


ПОГОДА в Суфанбури

  • Прогноз погоды в Суфанбури
  • Монитор погоды в Суфанбури

АРХИВ ПОГОДЫ в Суфанбури

Время (UTC), дата Ветер
(напр.,м/с)
 
Видим.   Явления Облачность Т
(С)
Тd
(С)
f
(%)
Тe
(С)
Тes
(С)
Комфортность P
(гПа)
Po
(гПа)
Тmin
(С)
Tmax
(С)
R
(мм)
R24
(мм)
S
(см)
09 15.08 Ю 5 12 км 4/1 600 м
[Cu med, cong Ac trans Cs]
+36.0 +24.7 52 +49 +52 опасность
перегрева
1003.7 1002.8
12 15.08 штиль 0 10 км в посл. час дождь 8/3 600 м
[Cu Sc Ac lent Cs]
+30.3 +27.1 83 +48 +48 опасность
перегрева
1004.5 1003.5 +37.0 0.3
15 15.08 Ю 2 10 км 4/3 600 м
[Sc Cs]
+29.1 +25.7 82 +43 +43 опасность
перегрева
1006.8 1005.8
18 15.08 штиль 0 10 км 5/0
[Cs]
+28.1 +25.0 83 +40 +40 очень
душно
1005.9 1004.9
21 15.08 Ю 2 10 км 6/0
[Cs]
+27.6 +24.3 82 +39 +39 очень
душно
1005.2 1004.2
00 16.08 Ю 2 10 км 6/3 600 м
[Sc Ac lent Cs]
+27.2 +24.0 83 +38 +38 очень
душно
1006.1 1005.1 +26.5
03 16.08 СЗ 3 12 км 9/3 600 м
[Sc Ac lent Cs]
+31.6 +24.5 66 +44 +49 опасность
перегрева
1007.0 1006.0
06 16.08 СЗ 2 12 км 8/4 600 м
[Cu med, cong Ac lent Cs]
+35.5 +23.7 51 +47 +55 опасность
перегрева
1005.1 1004.1
09 16.08 ЮЗ 5 8000 м осадки на расстоянии 9/4 600 м
[Cu med, cong Ac As Cs]
+35.3 +23.4 50 +46 +47 опасность
перегрева
1002.4 1001.4
12 16.08 Ю 3 10 км 10/4 600 м
[Cu med, cong As op Cs]
+30.5 +26.2 78 +46 +46 опасность
перегрева
1004.2 1003.2 +37.0
15 16.08 ЮЗ 4 10 км 10/3 600 м
[Cu med, cong As op Cs]
+29.0 +26.6 87 +45 +45 опасность
перегрева
1006.9 1005.9
18 16.08 Ю 3 10 км 9/3 600 м
[Sc As op Cs]
+28.3 +25.9 87 +42 +42 опасность
перегрева
1006.5 1005.5
21 16.08 ЮЗ 4 10 км 9/3 600 м
[Sc As op Cs]
+28.0 +23.9 78 +39 +39 очень
душно
1006.4 1005.4
00 17.08 З 2 10 км 9/4 600 м
[Sc Ac trans Cs]
+27.5 +24.8 85 +39 +40 очень
душно
1006.6 1005.6 +27.0
03 17.08 Ю 2 12 км 8/1 600 м
[Cu hum Ac trans Cs]
+32.0 +25.2 67 +46 +54 опасность
перегрева
1008.0 1007.0
06 17.08 ЮЗ 7 12 км 8/3 600 м
[Cu hum Ac trans Cs]
+32.8 +24.4 61 +45 +48 опасность
перегрева
1007.3 1006.3
09 17.08 ЮЗ 6 12 км 10/5 600 м
[Sc Ac und Cs]
+33.7 +24.3 58 +46 +47 опасность
перегрева
1005.5 1004.5
12 17.08 штиль 0 10 км {дождь} 10/5 600 м
[Sc Ac und Cs]
+28.1 +26.1 89 +42 +42 опасность
перегрева
1006.9 1005.9 +35.5 4
15 17.08 штиль 0 10 км 10/4 600 м
[Sc Ac und Cs]
+27.8 +26.0 90 +42 +42 опасность
перегрева
1009.3 1008.3
18 17.08 Ю 3 10 км 8/3 600 м
[Sc Ac und Cs]
+27.3 +24.3 84 +38 +38 очень
душно
1009.1 1008.1
21 17.08 Ю 2 10 км 10/3 600 м
[Sc Ac und Cs]
+26.9 +24.1 85 +37 +37 очень
душно
1008.8 1007.8
00 18.08 штиль 0 10 км 10/3 600 м
[Sc Ac und Cs]
+26.6 +24.3 87 +37 +38 очень
душно
1009.9 1008.9 +25.7
03 18.08 штиль 0 12 км 10/3 600 м
[Sc Ac und Cs]
+30.6 +23.7 67 +42 +49 опасность
перегрева
1011.2 1010.2
06 18.08 Ю 2 12 км 10/3 600 м
[Cu med, cong Ac trans Cs]
+33.5 +24.1 58 +45 +53 опасность
перегрева
1009.4 1008.4
09 18.08 штиль 0 12 км 10/5 600 м
[Sc Ac und Cs]
+33.5 +24.2 58 +45 +48 опасность
перегрева
1007.4 1006.4
12 18.08 штиль 0 12 км 9/3 600 м
[Sc Ac lent Cs]
+32.0 +24.1 63 +44 +44 опасность
перегрева
1008.4 1007.4 +35.5
15 18.08 штиль 0 10 км 5/0
[Ac trans Cs]
+29.2 +23.7 72 +40 +40 очень
душно
1010.6 1009.6
18 18.08 Ю 2 10 км 9/3 600 м
[Sc Ac trans Cs]
+28.0 +23.6 77 +38 +38 очень
душно
1009.4 1008.4
21 18.08 Ю 2 10 км 6/0
[Cs]
+27.0 +23.3 80 +36 +36 очень
душно
1008.0 1007.0
00 19.08 Ю 2 10 км 6/3 600 м
[Cu med, cong Ac lent Cs]
+27.0 +23.3 80 +36 +37 очень
душно
1009.2 1008.2 +26.4
03 19.08 Ю 3 12 км 8/3 600 м
[Cu med, cong Ac trans Cs]
+30.5 +23.4 66 +41 +47 опасность
перегрева
1009.7 1008.7
06 19.08 Ю 4 12 км 8/5 600 м
[Cu med, cong Ac lent Cs]
+33.5 +24.7 60 +47 +52 опасность
перегрева
1007.9 1006.9
09 19.08 З 2 12 км 10/5 600 м
[Cu med, cong Ac lent Cs]
+34.4 +24.6 57 +47 +49 опасность
перегрева
1005.6 1004.6
12 19.08 Ю 2 10 км 9/4 600 м
[Cu Sc Ac As Cs]
+28.1 +23.6 77 +39 +39 очень
душно
1006.5 1005.5 +34.9
15 19.08 З 1 10 км 8/4 600 м
[Sc Ac lent Cs]
+28.8 +23.6 74 +39 +39 очень
душно
1009.2 1008.2
18 19.08 штиль 0 10 км 9/3 600 м
[Sc As op Cs]
+27.9 +24.3 81 +39 +39 очень
душно
1007.8 1006.7
21 19.08 ЮЗ 2 10 км 8/3 600 м
[Sc Ac trans Cs]
+27.2 +24.0 83 +38 +38 очень
душно
1005.9 1004.9
00 20.08 штиль 0 10 км 10/4 600 м
[Sc Ac und Cs]
+27.0 +24.1 84 +37 +38 очень
душно
1007.1 1006.1 +26.2
03 20.08 штиль 0 10 км 10/5 600 м
[Sc Ac und Cs]
+30.5 +24.8 72 +44 +49 опасность
перегрева
1007.8 1006.8
06 20.08 штиль 0 12 км 10/5 600 м
[Sc Ac und Cs]
+33.1 +25.1 63 +47 +54 опасность
перегрева
1006.2 1005.2
09 20.08 З 7 10 км слаб. дождь 10/4 600 м
[Cu Sc Ac und Cs]
+27.6 +25.8 90 +41 +42 опасность
перегрева
1004.4 1003.4 3
12 20.08 штиль 0 10 км {дождь} 10/5 600 м
[Sc Ac lent Cs]
+28.0 +26.6 92 +43 +43 опасность
перегрева
1005.1 1004.1 +34.5 10
15 20.08 штиль 0 10 км 10/4 600 м
[Sc Ac lent Cs]
+27.5 +26.5 94 +42 +42 опасность
перегрева
1006.9 1005.9
18 20.08 Ю 2 10 км 10/4 600 м
[Sc As op Cs]
+26.7 +24.2 86 +37 +37 очень
душно
1005.6 1004.6
21 20.08 Ю 2 10 км 8/3 600 м
[Sc Ac trans Cs]
+26.5 +23.6 84 +36 +36 очень
душно
1004.6 1003.6
00 21.08 штиль 0 10 км 8/4 600 м
[Sc Ac trans Cs]
+26.5 +23.7 85 +36 +37 очень
душно
1006.2 1005.2 +25.6
03 21.08 штиль 0 12 км 8/3 600 м
[Sc Ac trans Cs]
+30.8 +23.9 67 +42 +52 опасность
перегрева
1007.4 1006.4
06 21.08 Ю 7 12 км 8/3 600 м
[Cu med, cong Ac lent Cs]
+33.0 +24.2 60 +45 +48 опасность
перегрева
1006.1 1005.1
09 21.08 Ю 5 12 км 8/3 600 м
[Cu med, cong Ac lent Cs]
+34.2 +24.7 58 +47 +49 опасность
перегрева
1003.7 1002.7
12 21.08 Ю 2 10 км {дождь} 8/3 600 м
[Sc Ac lent Cs]
+29.0 +25.0 79 +42 +42 опасность
перегрева
1005.7 1004.7 +35.2 4
15 21.08 штиль 0 10 км слаб. дождь 10/5 600 м
[Sc As op Cs]
+27.7 +26.6 94 +43 +43 опасность
перегрева
1007.9 1006.9 0.3
18 21.08 Ю 2 10 км {дождь} 10/5 600 м
[Sc As op Cs]
+27.0 +24.5 86 +38 +38 очень
душно
1007.4 1006.4 0.0
21 21.08 штиль 0 10 км {дождь} 10/4 600 м
[Sc As op Cs]
+26.2 +24.6 91 +37 +37 очень
душно
1006.8 1005.7 0.2
00 22.08 штиль 0 10 км {дождь} 10/4 600 м
[Sc Ac und Cs]
+26.4 +25.0 92 +38 +38 очень
душно
1008.0 1007.0 +25.7 4
03 22.08 Ю 2 12 км 10/3 600 м
[Sc Ac und Cs]
+30.0 +24.3 72 +42 +47 опасность
перегрева
1009.0 1008.0
06 22.08 Ю 3 12 км 10/4 600 м
[Cu Sc Ac und Cs]
+32.0 +24.6 65 +45 +50 опасность
перегрева
1007.0 1006.0

 

Местоположение метеостанции Суфанбури (Таиланд): широта 14.47 долгота 100.13 высота над уровнем моря 8 м.

В архиве по умолчанию представлена погода в Суфанбури за последнюю неделю. Архивные данные за месяц целиком и за предыдущие месяцы, начиная с января 2011 года, Вы можете получить, выбрав интересующий диапазон дат из раскрывающегося списка и нажав кнопку "Ввод!".


*Определитесь, кто Вы:
робот инопланетянин человек

Внимание! Время в таблицах - всемирное. Для получения местного времени необходимо прибавить поправку, которая равна 7 ч.

Смотрите также архив погоды в соседних городах и на ближайших метеорологических станциях:

Погода в У-Тхонг Агромете (Таиланд) (34 км)
Погода в Накхонпатхоме (Таиланд) (53 км)
Погода в Лопбури (Таиланд) (63 км)
Погода в Аюттхая (Таиланд) (64 км)
Погода в Патхумтхани (Таиланд) (67 км)
Погода в Чайнат Агромете (Таиланд) (76 км)
Погода в Дон Муанг (Таиланд) (79 км)
Погода в Канчанабури (Таиланд) (82 км)
Погода в Сарабури (Таиланд) (85 км)
Погода в Бангкоке (Таиланд) (94 км)

Пояснения к столбцам:

Ветер - указаны скорость ветра в м/с - средняя за 10 мин, порывы в срок и между сроками (в фигурных скобках) и направление, откуда дует ветер: С - северный, СВ - северо-восточный, В - восточный, ЮВ - юго-восточный, Ю - южный, ЮЗ - юго-западный, З - западный, СЗ - северо-западный.
Видимость - горизонтальная дальность видимости в метрах или километрах. При видимости от 1 до 10 км при отсутствии осадков обычно наблюдается дымка, при ухудшении видимости до 1 км и менее - туман. В сухую погоду видимость может ухудшаться дымом, пылью или мглою.
Явления - указаны атмосферные явления, наблюдавшиеся в срок или в последний час перед сроком; фигурными скобками обозначены явления, наблюдавшиеся между сроками (за 1-3 часа до срока); квадратными скобками обозначены град или гололедные отложения с указанием их диаметра в мм.
Облачность - указаны через наклонную черту общая и нижняя облачность в баллах и высота нижней границы облаков в метрах; квадратными скобками обозначены формы облаков: Ci - перистые, Cs - перисто-слоистые, Cc - перисто-кучевые, Ac - высококучевые, As - высокослоистые, Sc - слоисто-кучевые, Ns - слоисто-дождевые, Cu - кучевые, Cb - кучево-дождевые. Подробнее классификацию облаков см. в Атласе облаков (PDF).
T - Температура воздуха - температура, измеренная на высоте 2 м над землей.
Td - Температура точки росы - температура, при понижении до которой содержащийся в воздухе водяной пар достигнет насыщения.
f - Относительная влажность воздуха - влажноcть воздуха, измеренная на высоте 2 м над землей.
Te - Эффективная температура - температура, которую ощущает одетый по сезону человек в тени. Характеристика душности погоды. При расчете учитывается влияние влажности воздуха и скорости ветра на теплоощущения человека.
Tes - Эффективная температура на солнце - температура, которую ощущает человек, с поправкой на солнечный нагрев. Характеристика знойности погоды. Зависит от высоты солнца над горизонтом, облачности и скорости ветра. Ночью, в пасмурную погоду, а также при ветре 12 м/с и более поправка равна нулю.
P - Атмосферное давление - приведенное к уровню моря атмосферное давление.
Po - Атмосферное давление - измеренное на уровне метеостанции атмосферное давление.
Tmin - Минимальная температура - минимум температуры воздуха на высоте 2 м над землей.
Tmax - Максимальная температура - максимум температуры воздуха на высоте 2 м над землей.
R - Количество осадков - Количество выпавших осадков за период времени, мм. При наведении курсора мыши на число - период времени, за который выпало указанное количество осадков.
R24 - Количество осадков - Количество выпавших осадков за 24 часа, мм.
S - Снежный покров - Высота снежного покрова, см. При наведении курсора мыши на число - состояние снежного покрова и степень покрытия местности в баллах.